TimeCST,TemperatureF,Dew PointF,Humidity,Sea Level PressureIn,VisibilityMPH,Wind Direction,Wind SpeedMPH,Gust SpeedMPH,PrecipitationIn,Events,Conditions,WindDirDegrees,DateUTC
12:00 AM,66.2,66.2,100,29.90,10.0,SSE,11.5,18.4,N/A,,Overcast,160,2012-12-20 06:00:00
12:16 AM,66.2,66.2,100,29.90,9.0,South,9.2,-,N/A,,Overcast,170,2012-12-20 06:16:00
12:27 AM,66.2,66.2,100,29.89,9.0,SSE,12.7,-,N/A,,Overcast,160,2012-12-20 06:27:00
12:31 AM,68.0,66.2,94,29.89,10.0,SSE,13.8,-,N/A,,Overcast,160,2012-12-20 06:31:00
12:38 AM,68.0,66.2,94,29.90,9.0,SSE,11.5,-,N/A,,Overcast,160,2012-12-20 06:38:00
12:55 AM,67.1,66.2,97,29.89,9.0,South,12.7,-,0.00,,Overcast,170,2012-12-20 06:55:00
12:59 AM,68.0,66.2,94,29.89,9.0,South,15.0,19.6,N/A,,Overcast,170,2012-12-20 06:59:00
1:26 AM,68.0,66.2,94,29.88,8.0,South,12.7,-,N/A,Rain,Light Rain,170,2012-12-20 07:26:00
1:27 AM,68.0,66.2,94,29.88,8.0,South,13.8,-,N/A,Rain,Light Rain,170,2012-12-20 07:27:00
1:31 AM,68.0,66.2,94,29.88,8.0,South,15.0,20.7,N/A,,Overcast,170,2012-12-20 07:31:00
1:34 AM,68.0,66.2,94,29.88,8.0,South,15.0,23.0,N/A,,Overcast,170,2012-12-20 07:34:00
1:42 AM,68.0,66.2,94,29.88,8.0,South,16.1,23.0,N/A,,Overcast,170,2012-12-20 07:42:00
1:55 AM,67.5,66.6,97,29.88,8.0,South,13.8,21.9,0.00,,Overcast,170,2012-12-20 07:55:00
2:05 AM,68.0,66.2,94,29.88,7.0,South,16.1,-,N/A,Rain,Light Rain,170,2012-12-20 08:05:00
2:14 AM,68.0,66.2,94,29.88,7.0,South,13.8,-,N/A,,Overcast,180,2012-12-20 08:14:00
2:53 AM,68.0,66.2,94,29.88,7.0,South,11.5,-,N/A,,Overcast,180,2012-12-20 08:53:00
2:55 AM,67.6,67.1,98,29.88,6.0,South,12.7,-,0.01,,Overcast,170,2012-12-20 08:55:00
3:39 AM,68.0,68.0,100,29.86,5.0,South,12.7,-,N/A,Rain,Light Rain,170,2012-12-20 09:39:00
3:45 AM,68.0,68.0,100,29.86,3.0,South,12.7,-,N/A,Rain,Light Rain,180,2012-12-20 09:45:00
3:47 AM,68.0,68.0,100,29.86,2.5,South,12.7,-,N/A,Rain,Light Rain,180,2012-12-20 09:47:00
3:49 AM,68.0,66.2,94,29.86,2.0,South,15.0,20.7,N/A,Rain,Light Rain,180,2012-12-20 09:49:00
3:50 AM,68.0,66.2,94,29.86,2.0,South,13.8,20.7,N/A,Rain,Light Rain,180,2012-12-20 09:50:00
3:51 AM,68.0,66.2,94,29.86,2.0,South,13.8,21.9,N/A,,Overcast,180,2012-12-20 09:51:00
3:52 AM,68.0,66.2,94,29.86,1.8,South,16.1,21.9,N/A,,Overcast,180,2012-12-20 09:52:00
3:54 AM,68.0,68.0,100,29.86,2.0,South,15.0,21.9,N/A,,Overcast,180,2012-12-20 09:54:00
3:55 AM,67.6,67.1,98,29.86,2.0,South,13.8,21.9,0.01,,Overcast,180,2012-12-20 09:55:00
3:58 AM,68.0,68.0,100,29.85,2.5,South,13.8,21.9,N/A,,Overcast,180,2012-12-20 09:58:00
3:59 AM,68.0,68.0,100,29.85,2.5,South,15.0,21.9,N/A,,Overcast,180,2012-12-20 09:59:00
4:00 AM,68.0,68.0,100,29.85,3.0,South,16.1,21.9,N/A,,Overcast,180,2012-12-20 10:00:00
4:01 AM,68.0,68.0,100,29.85,3.0,South,18.4,21.9,N/A,,Overcast,190,2012-12-20 10:01:00
4:16 AM,68.0,68.0,100,29.86,4.0,South,12.7,-,N/A,,Overcast,190,2012-12-20 10:16:00
4:21 AM,68.0,66.2,94,29.86,2.5,South,12.7,-,N/A,,Overcast,190,2012-12-20 10:21:00
4:24 AM,68.0,66.2,94,29.86,2.0,South,13.8,-,N/A,,Overcast,190,2012-12-20 10:24:00
4:27 AM,68.0,68.0,100,29.86,1.8,South,16.1,-,N/A,,Overcast,190,2012-12-20 10:27:00
4:30 AM,68.0,68.0,100,29.86,1.5,SSW,16.1,-,N/A,,Overcast,200,2012-12-20 10:30:00
4:34 AM,68.0,68.0,100,29.86,1.8,SSW,15.0,-,N/A,,Overcast,200,2012-12-20 10:34:00
4:37 AM,68.0,68.0,100,29.86,2.0,SSW,15.0,-,N/A,,Overcast,200,2012-12-20 10:37:00
4:40 AM,68.0,68.0,100,29.87,2.5,SSW,15.0,-,N/A,,Overcast,200,2012-12-20 10:40:00
4:43 AM,68.0,68.0,100,29.87,3.0,SSW,13.8,-,N/A,,Overcast,200,2012-12-20 10:43:00
4:47 AM,68.0,68.0,100,29.86,2.5,SSW,16.1,-,N/A,,Overcast,200,2012-12-20 10:47:00
4:52 AM,68.0,68.0,100,29.86,2.5,South,17.3,-,N/A,,Overcast,190,2012-12-20 10:52:00
4:54 AM,68.0,68.0,100,29.86,2.5,SSW,17.3,-,N/A,,Overcast,200,2012-12-20 10:54:00
4:55 AM,67.6,67.5,99,29.86,2.5,SSW,15.0,-,N/A,,Overcast,200,2012-12-20 10:55:00
4:58 AM,68.0,68.0,100,29.86,3.0,SSW,17.3,-,N/A,,Overcast,200,2012-12-20 10:58:00
5:18 AM,68.0,68.0,100,29.86,2.5,SSW,15.0,-,N/A,,Overcast,200,2012-12-20 11:18:00
5:22 AM,68.0,66.2,94,29.86,2.5,SSW,12.7,-,N/A,,Overcast,210,2012-12-20 11:22:00
5:31 AM,68.0,66.2,94,29.86,2.5,SSW,13.8,-,N/A,,Overcast,200,2012-12-20 11:31:00
5:34 AM,68.0,66.2,94,29.86,3.0,SSW,15.0,-,N/A,,Overcast,200,2012-12-20 11:34:00
5:36 AM,68.0,66.2,94,29.86,3.0,SSW,13.8,-,N/A,,Overcast,210,2012-12-20 11:36:00
5:41 AM,68.0,68.0,100,29.86,4.0,SSW,17.3,23.0,N/A,,Overcast,210,2012-12-20 11:41:00
5:43 AM,68.0,68.0,100,29.86,5.0,SSW,18.4,23.0,N/A,,Overcast,210,2012-12-20 11:43:00
5:45 AM,68.0,68.0,100,29.86,6.0,SSW,19.6,-,N/A,,Overcast,210,2012-12-20 11:45:00
5:55 AM,68.7,68.4,99,29.85,10.0,SSW,18.4,26.5,N/A,,Overcast,210,2012-12-20 11:55:00
6:02 AM,68.0,68.0,100,29.85,6.0,SSW,19.6,-,N/A,,Overcast,210,2012-12-20 12:02:00
6:07 AM,68.0,68.0,100,29.85,4.0,SSW,18.4,-,N/A,,Overcast,210,2012-12-20 12:07:00
6:14 AM,68.0,68.0,100,29.85,5.0,SSW,19.6,27.6,N/A,,Overcast,210,2012-12-20 12:14:00
6:19 AM,68.0,68.0,100,29.85,3.0,SSW,18.4,-,N/A,,Overcast,210,2012-12-20 12:19:00
6:20 AM,68.0,66.2,94,29.85,2.5,SSW,18.4,-,N/A,,Overcast,210,2012-12-20 12:20:00
6:21 AM,68.0,66.2,94,29.85,2.0,SSW,17.3,-,N/A,,Overcast,210,2012-12-20 12:21:00
6:22 AM,68.0,66.2,94,29.85,1.8,SSW,17.3,-,N/A,,Overcast,210,2012-12-20 12:22:00
6:23 AM,68.0,66.2,94,29.86,1.8,SSW,18.4,-,N/A,,Overcast,210,2012-12-20 12:23:00
6:24 AM,66.2,66.2,100,29.86,1.5,SSW,18.4,-,N/A,,Overcast,210,2012-12-20 12:24:00
6:28 AM,66.2,66.2,100,29.86,1.2,SSW,17.3,-,N/A,,Overcast,210,2012-12-20 12:28:00
6:30 AM,66.2,66.2,100,29.86,1.5,SSW,17.3,-,N/A,,Overcast,210,2012-12-20 12:30:00
6:36 AM,68.0,66.2,94,29.85,1.8,SSW,16.1,-,N/A,,Overcast,210,2012-12-20 12:36:00
6:38 AM,68.0,66.2,94,29.85,2.0,SSW,15.0,-,N/A,,Overcast,210,2012-12-20 12:38:00
6:43 AM,68.0,66.2,94,29.85,1.8,SSW,16.1,-,N/A,,Overcast,210,2012-12-20 12:43:00
6:44 AM,68.0,66.2,94,29.85,1.5,SSW,17.3,-,N/A,,Overcast,210,2012-12-20 12:44:00
6:45 AM,68.0,66.2,94,29.85,1.2,SSW,18.4,-,N/A,,Overcast,210,2012-12-20 12:45:00
6:49 AM,66.2,66.2,100,29.85,0.8,SSW,18.4,-,N/A,,Mist,210,2012-12-20 12:49:00
6:52 AM,66.2,66.2,100,29.85,0.5,SSW,16.1,-,N/A,Fog,Fog,210,2012-12-20 12:52:00
6:53 AM,66.2,66.2,100,29.85,0.5,SSW,17.3,-,N/A,Fog,Fog,210,2012-12-20 12:53:00
6:55 AM,66.7,66.4,99,29.85,0.5,SSW,17.3,-,N/A,Fog,Fog,210,2012-12-20 12:55:00
6:56 AM,66.2,66.2,100,29.85,0.5,SSW,16.1,-,N/A,Fog,Fog,210,2012-12-20 12:56:00
7:07 AM,66.2,66.2,100,29.86,0.2,SW,17.3,-,N/A,Fog,Fog,220,2012-12-20 13:07:00
7:08 AM,66.2,66.2,100,29.86,0.2,SW,16.1,-,N/A,Fog,Fog,220,2012-12-20 13:08:00
7:09 AM,66.2,66.2,100,29.86,0.2,SW,16.1,-,N/A,Fog,Fog,220,2012-12-20 13:09:00
7:15 AM,66.2,66.2,100,29.86,0.2,SSW,15.0,-,N/A,Fog,Fog,210,2012-12-20 13:15:00
7:18 AM,66.2,66.2,100,29.86,0.5,SW,16.1,-,N/A,Fog,Fog,220,2012-12-20 13:18:00
7:23 AM,66.2,66.2,100,29.86,0.5,SSW,16.1,-,N/A,Fog,Fog,210,2012-12-20 13:23:00
7:31 AM,68.0,66.2,94,29.86,0.5,SSW,16.1,-,N/A,Fog,Fog,210,2012-12-20 13:31:00
7:32 AM,68.0,66.2,94,29.86,0.5,SSW,16.1,-,N/A,Fog,Fog,210,2012-12-20 13:32:00
7:33 AM,68.0,66.2,94,29.86,0.8,SSW,16.1,-,N/A,,Mist,210,2012-12-20 13:33:00
7:34 AM,68.0,66.2,94,29.86,0.8,SSW,16.1,-,N/A,,Mist,210,2012-12-20 13:34:00
7:37 AM,68.0,66.2,94,29.86,1.0,SSW,16.1,-,N/A,,Mist,210,2012-12-20 13:37:00
7:40 AM,68.0,66.2,94,29.86,1.5,SW,15.0,-,N/A,,Overcast,220,2012-12-20 13:40:00
7:41 AM,68.0,66.2,94,29.85,2.0,SW,16.1,23.0,N/A,,Overcast,220,2012-12-20 13:41:00
7:42 AM,68.0,66.2,94,29.85,2.5,SW,17.3,23.0,N/A,,Overcast,220,2012-12-20 13:42:00
7:43 AM,68.0,66.2,94,29.85,3.0,SW,17.3,23.0,N/A,,Overcast,220,2012-12-20 13:43:00
7:48 AM,68.0,68.0,100,29.86,6.0,SW,19.6,25.3,N/A,,Overcast,220,2012-12-20 13:48:00
7:52 AM,68.0,68.0,100,29.86,2.5,SW,17.3,25.3,N/A,,Overcast,220,2012-12-20 13:52:00
7:53 AM,68.0,68.0,100,29.86,2.0,SW,17.3,25.3,N/A,,Overcast,220,2012-12-20 13:53:00
7:54 AM,68.0,68.0,100,29.86,1.8,SW,18.4,25.3,N/A,,Overcast,220,2012-12-20 13:54:00
7:55 AM,68.0,67.8,99,29.86,1.2,SW,19.6,25.3,N/A,,Overcast,220,2012-12-20 13:55:00
7:57 AM,68.0,68.0,100,29.86,0.8,SW,17.3,25.3,N/A,,Mist,220,2012-12-20 13:57:00
7:59 AM,68.0,68.0,100,29.86,0.5,SW,19.6,-,N/A,Fog,Fog,220,2012-12-20 13:59:00
8:01 AM,68.0,68.0,100,29.86,0.5,SW,17.3,25.3,N/A,Fog,Fog,220,2012-12-20 14:01:00
8:02 AM,68.0,68.0,100,29.86,0.5,SW,17.3,25.3,N/A,Fog,Fog,220,2012-12-20 14:02:00
8:03 AM,68.0,68.0,100,29.86,0.2,SW,17.3,25.3,N/A,Fog,Fog,220,2012-12-20 14:03:00
8:36 AM,68.0,68.0,100,29.86,0.2,SW,18.4,-,N/A,Fog-Rain,Light Rain,220,2012-12-20 14:36:00
8:40 AM,68.0,68.0,100,29.86,0.2,SW,19.6,-,N/A,Fog-Rain,Light Rain,220,2012-12-20 14:40:00
8:45 AM,68.0,68.0,100,29.86,0.8,SW,20.7,-,N/A,Rain,Light Rain,220,2012-12-20 14:45:00
8:55 AM,67.8,67.5,99,29.86,1.5,SW,17.3,-,0.00,,Overcast,220,2012-12-20 14:55:00
9:00 AM,68.0,68.0,100,29.86,1.8,SW,17.3,-,N/A,,Overcast,230,2012-12-20 15:00:00
9:01 AM,68.0,68.0,100,29.86,2.0,SW,17.3,-,N/A,,Overcast,230,2012-12-20 15:01:00
9:03 AM,68.0,68.0,100,29.86,3.0,SW,15.0,-,N/A,,Mostly Cloudy,230,2012-12-20 15:03:00
9:13 AM,68.0,66.2,94,29.90,9.0,NW,17.3,27.6,N/A,,Mostly Cloudy,310,2012-12-20 15:13:00
9:15 AM,66.2,62.6,88,29.91,8.0,NW,15.0,27.6,N/A,Rain,Light Rain,310,2012-12-20 15:15:00
9:16 AM,64.4,60.8,88,29.92,7.0,NW,13.8,27.6,N/A,Rain,Light Rain,310,2012-12-20 15:16:00
9:17 AM,62.6,57.2,82,29.93,7.0,NW,12.7,27.6,N/A,Rain,Light Rain,310,2012-12-20 15:17:00
9:18 AM,62.6,57.2,82,29.93,6.0,NW,11.5,27.6,N/A,Rain,Light Rain,320,2012-12-20 15:18:00
9:20 AM,60.8,55.4,82,29.93,4.0,NW,9.2,27.6,N/A,Rain,Light Rain,310,2012-12-20 15:20:00
9:21 AM,59.0,55.4,88,29.92,3.0,NW,9.2,27.6,N/A,Rain,Light Rain,310,2012-12-20 15:21:00
9:22 AM,59.0,55.4,88,29.92,2.5,NW,10.4,25.3,N/A,Rain,Light Rain,310,2012-12-20 15:22:00
9:25 AM,57.2,53.6,88,29.92,2.5,NW,10.4,23.0,N/A,Rain,Heavy Rain,320,2012-12-20 15:25:00
9:27 AM,57.2,53.6,88,29.93,3.0,NW,6.9,23.0,N/A,Rain,Light Rain,310,2012-12-20 15:27:00
9:33 AM,57.2,53.6,88,29.92,9.0,NW,8.1,23.0,N/A,,Mostly Cloudy,320,2012-12-20 15:33:00
9:55 AM,57.0,49.8,77,29.93,10.0,NW,15.0,-,0.04,,Mostly Cloudy,320,2012-12-20 15:55:00
10:55 AM,59.4,46.9,63,29.91,10.0,NNW,16.1,23.0,N/A,,Partly Cloudy,330,2012-12-20 16:55:00
11:55 AM,63.5,45.9,53,29.90,10.0,NW,15.0,28.8,N/A,,Partly Cloudy,320,2012-12-20 17:55:00
12:55 PM,62.1,45.3,54,29.90,10.0,NW,13.8,21.9,N/A,,Clear,310,2012-12-20 18:55:00
1:55 PM,63.9,44.2,49,29.90,10.0,NW,16.1,25.3,N/A,,Clear,310,2012-12-20 19:55:00
2:55 PM,62.4,30.6,30,29.95,10.0,NNW,18.4,29.9,N/A,,Clear,330,2012-12-20 20:55:00
3:55 PM,58.8,31.6,36,29.99,10.0,NW,18.4,26.5,N/A,,Clear,320,2012-12-20 21:55:00
4:55 PM,55.8,30.9,39,30.03,10.0,NNW,15.0,28.8,N/A,,Clear,330,2012-12-20 22:55:00
5:55 PM,53.6,32.7,45,30.08,10.0,NW,12.7,-,N/A,,Clear,320,2012-12-20 23:55:00
6:55 PM,52.2,31.1,45,30.14,10.0,NNW,16.1,-,N/A,,Clear,330,2012-12-21 00:55:00
7:55 PM,50.9,29.8,44,30.19,10.0,NW,12.7,19.6,N/A,,Clear,320,2012-12-21 01:55:00
8:55 PM,49.3,30.6,49,30.22,10.0,NW,12.7,18.4,N/A,,Clear,320,2012-12-21 02:55:00
9:55 PM,48.0,29.8,49,30.24,10.0,NNW,8.1,-,N/A,,Clear,330,2012-12-21 03:55:00
10:55 PM,46.4,29.3,51,30.26,10.0,NW,8.1,-,N/A,,Clear,320,2012-12-21 04:55:00
11:55 PM,44.8,28.4,53,30.27,10.0,NW,8.1,-,N/A,,Clear,310,2012-12-21 05:55:00